DELFI-C3 (DO-64) (32789 NORAD) Tracking and Keplerian Element Data

This shows tracking and keplerian element data for the satellite.

Feedback or suggestion? Click here.




ElementValue
Catalog32789
NameDELFI-C3 (DO-64)
Epoch Orbit79558
Epoch Day324.62869685
Epoch Year2022
RAAN345.5845
Inclination97.3273
Eccentricity0.001079
Argument of Perigee131.0454
Mean Anonmoly229.1714
Mean Motion15.18130861
Decay Rate0.00012889
L11 32789U 08021G 22324.62869685 .00012889 00000+0 63322-3 0 9999
L22 32789 97.3273 345.5845 0010790 131.0454 229.1714 15.18130861795585



Live tracking and technical data element details for DELFI-C3 (DO-64) (NORAD 32789). DELFI-C3 (DO-64) can be tracked NOW for your location showing map with azimuth and elevation plus other details from your city location.







IsCatalogInMostPopularTable: catalog: 32789, numindb: 397
Update: records affected: 1



GetName: 32789 DELFI-C3 (DO-64)

Hit Count: updated at: Fri, 02 Dec 2022 13:18:28 GMT